COSMO-SKYMED 2

Last updated on Tue Oct 15 2024 00:02:24 GMT+0000 (Coordinated Universal Time)

1 32376U 07059A 24288.52830948 .00001590 00000+0 20635-3 0 9998 2 32376 97.8883 109.9466 0001373 85.6183 274.5186 14.82130473911542
UTC large
Height (km)
Speed (km/s)
/
Latitude / Longitude
Inclination (degrees)
Orbital Period (minutes)
Azimuth
Elevation
Range (km)
Doppler Factor

Next 0 passes for location: London (51.5072 / 0.1276)

Sorry there are no passes over London.